SV1IW Athens current weather conditions

sailwx.info

Wind from 221 at 2 knots gusting 5

Air temperature 32.2° C
Dewpoint 17.3° C

Last reported at 2015-Jul-30 19:30 UTC.
Time now 2015-Jul-30 20:15 UTC

Location: N 37°58' E 023°43'.
View on Google Maps.

See reports from other nearby stations

  
Tides and Currents Weather Stations Pressure Air Temp Water Temp Dewpoint Dewpoint Depression Visibility Wind Speed Wind Dir Waves Ship Positions
date/time (UTC)wind fromknots sea level pressurealtimeterstation pressurevisibilityair tempwater tempwave heightnotes
2015-Jul-30 19:30 221 2 gusting 5 32.2
2015-Jul-30 19:00 220 2 gusting 5 31.7
2015-Jul-30 18:30 230 2 gusting 6 31.7
2015-Jul-30 14:30 195 5 gusting 10 35.6
2015-Jul-30 14:00 217 6 gusting 10 35.0
2015-Jul-30 13:30 254 5 gusting 10 35.6
2015-Jul-30 13:00 228 5 gusting 10 35.6
2015-Jul-30 12:30 221 4 gusting 7 36.1
2015-Jul-30 12:00 229 5 gusting 10 35.6
2015-Jul-30 11:30 261 5 gusting 8 36.1
2015-Jul-30 11:00 236 4 gusting 7 35.6
2015-Jul-30 10:30 210 4 gusting 8 35.6
2015-Jul-30 10:00 197 5 gusting 7 34.4
2015-Jul-30 09:30 235 4 gusting 6 33.9
2015-Jul-28 22:30 269 31.1
2015-Jul-28 22:00 255 31.1
2015-Jul-28 21:30 255 30.6
2015-Jul-28 21:00 262 2 gusting 5 31.1
2015-Jul-28 20:30 294 2 gusting 4 31.7
2015-Jul-28 20:00 346 32.2